Regional Weather Roundup
Issued by NWS

Home | Current Version | Previous Version | Graphics & Text | Print | Product List | Glossary On
Versions: 1 2 3 4 5 6 7 8 9 10 11 12 13 14 15 16 17 18 19 20 21 22 23 24 25 26 27 28 29 30 31 32 33 34 35 36 37 38 39 40 41 42 43 44 45 46 47 48 49 50
000
ASUS43 KLSX 281259
RWRMO

WEATHER SUMMARY FOR MISSOURI
NATIONAL WEATHER SERVICE SPRINGFIELD MO
700 AM CST FRI NOV 28 2014

NOTE: "FAIR" INDICATES FEW OR NO CLOUDS BELOW 12,000 FEET WITH NO
       SIGNIFICANT WEATHER AND/OR OBSTRUCTIONS TO VISIBILITY.
       CURRENT SKY AND/OR WEATHER CONDITIONS ARE NOT AVAILABLE FOR
       CHILLICOTHE AND FARMINGTON.

MOZ001>031-035>038-043-044-053-054-281400-
...NORTHERN AND WESTERN MISSOURI...

CITY           SKY/WX    TMP DP  RH WIND       PRES   REMARKS
KANSAS CTY INT CLEAR     36  25  64 S17       29.99F WCI  26
KANSAS C DTWN  CLEAR     37  25  61 S10       30.02F WCI  30
LEE`S SUMMIT   CLEAR     34  24  67 S14       30.03F WCI  25
ST JOSEPH      CLEAR     30  23  75 S7        30.01S WCI  23
CHILLICOTHE      N/A     30  23  75 S8        30.06F WCI  22
KIRKSVILLE     PTCLDY    24  22  91 S13       30.07F WCI  12

$$
MOZ066>068-077>081-088>096-101>105-281400-
...SOUTHWEST MISSOURI...

CITY           SKY/WX    TMP DP  RH WIND       PRES   REMARKS
SPRINGFIELD    CLEAR     33  25  72 S15       30.15F WCI  23
JOPLIN         CLEAR     41  26  55 S17       30.11F

$$
MOZ032>034-039>042-045>050-055>058-069>072-281400-
...CENTRAL MISSOURI...

CITY           SKY/WX    TMP DP  RH WIND       PRES   REMARKS
COLUMBIA       CLEAR     29  23  78 SE9       30.13F WCI  20
JEFFERSON CITY CLEAR     31  24  75 E6        30.16F WCI  25
ROLLA          CLEAR     32  24  72 S14       30.15F WCI  22
SEDALIA        CLEAR     36  25  64 S16       30.09F WCI  26
OSAGE BEACH    CLEAR     34  25  69 S10       30.14F WCI  26

$$
MOZ051-052-059>065-281400-
...EAST CENTRAL MISSOURI...

CITY           SKY/WX    TMP DP  RH WIND       PRES   REMARKS
ST LOUIS INTL  PTCLDY    28  23  81 SE10      30.24F WCI  19
SPIRIT OF STL  CLEAR     27  23  85 SE3       30.22F
ST CHARLES     CLEAR     25  22  88 SE8       30.25F WCI  16

$$
MOZ072>076-082>087-097>100-106>115-281400-
...SOUTH CENTRAL AND SOUTHEAST MISSOURI...

CITY           SKY/WX    TMP DP  RH WIND       PRES   REMARKS
CAPE GIRARDEAU CLEAR     30  25  81 S12       30.37S WCI  20
FARMINGTON     CLEAR     28  27  93 SE9       30.28F WCI  20
POPLAR BLUFF   CLEAR     28  24  85 S6        30.35S WCI  22
WEST PLAINS    CLEAR     29  24  82 S5        30.26F WCI  24

$$


USA.gov is the U.S. government's official web portal to all federal, state and local government web resources and services.